Stations météo

réclame
Mon MeteoGroup
Kvarn, Suède (2561): Température de l'air & dewpoint: 11.01.2018 08:00:00 - 17.01.2018 08:00:00 (CET)Kvarn, Suède (2561): Vitesse du vent & gusts: 11.01.2018 08:00:00 - 17.01.2018 08:00:00 (CET)Kvarn, Suède (2561): Direction du vent: 11.01.2018 08:00:00 - 17.01.2018 08:00:00 (CET)Kvarn, Suède (2561): reduced air pressure: 11.01.2018 08:00:00 - 17.01.2018 08:00:00 (CET)Kvarn, Suède (2561): visibility: 11.01.2018 08:00:00 - 17.01.2018 08:00:00 (CET)Kvarn, Suède (2561): Quantités de précipitations: 11.01.2018 08:00:00 - 17.01.2018 08:00:00 (CET)
Date & Time tt [°C] td [°C] ff [km/h] ff [knt] fx [km/h] fx [knt] dd ppp [hPa] vv [km] rr [mm]
17.01.2018 08:00:00 - - - - - - - - - -
17.01.2018 07:00:00 0,3 0,2 4 2 11 6 E 984,3 2,3 0,2
17.01.2018 06:00:00 0,2 0,2 4 2 7 4 ESE 984,0 2,3 0,2
17.01.2018 05:00:00 0,2 0,2 4 2 7 4 E 983,8 2,1 0,7
17.01.2018 04:00:00 0,6 0,6 4 2 11 6 E 983,9 6 0,1
17.01.2018 03:00:00 0,7 0,7 4 2 7 4 E 984,0 11 0,0
17.01.2018 02:00:00 0,6 0,6 4 2 7 4 ESE 984,2 11 0,0
17.01.2018 01:00:00 0,6 0,5 4 2 11 6 ESE 984,4 13 0,0
17.01.2018 00:00:00 0,5 0,5 4 2 11 6 ESE 984,7 13 0,0
16.01.2018 23:00:00 0,5 0,5 4 2 11 6 ESE 984,8 8 0,0
16.01.2018 22:00:00 0,5 0,5 4 2 14 8 ESE 984,8 27 0,0
16.01.2018 21:00:00 0,5 0,5 4 2 18 10 ESE 984,8 19 0,0
16.01.2018 20:00:00 0,5 0,5 7 4 14 8 ESE 984,8 15 0,0
16.01.2018 19:00:00 0,4 0,3 7 4 14 8 SE 984,8 14 0,0
16.01.2018 18:00:00 0,2 0,1 7 4 22 12 SE 984,6 23 0,0
16.01.2018 17:00:00 0,1 0,0 7 4 18 10 SE 984,7 30 0,0
16.01.2018 16:00:00 0,0 0,0 7 4 22 12 SE 984,8 29 0,0
16.01.2018 15:00:00 - - - - - - - - - -
16.01.2018 14:00:00 -0,2 -0,2 7 4 29 16 SE 984,5 12 0,2
16.01.2018 13:00:00 -0,2 -0,2 11 6 25 14 SE 984,8 1,7 0,2
16.01.2018 12:00:00 -0,1 -0,2 11 6 36 19 SE 985,3 1,3 0,2
16.01.2018 11:00:00 0,2 -1,1 14 8 36 19 SE 985,7 7 0,0
16.01.2018 10:00:00 0,0 -1,1 14 8 36 19 SE 986,1 8 0,1
16.01.2018 09:00:00 -0,2 -0,6 14 8 36 19 ESE 986,7 4,6 0,1
16.01.2018 08:00:00 0,1 -0,6 14 8 36 19 SE 987,1 2,8 0,0
16.01.2018 07:00:00 0,2 -0,4 11 6 36 19 SE 987,7 10 0,0
16.01.2018 06:00:00 -0,4 -0,5 14 8 32 18 ESE 988,8 7 0,3
16.01.2018 05:00:00 -0,4 -1,2 14 8 32 18 ESE 990,5 1,5 0,0
16.01.2018 04:00:00 -0,4 -2,3 14 8 36 19 ESE 992,6 14 0,0
16.01.2018 03:00:00 -0,5 -2,4 14 8 32 18 ESE 994,0 14 0,0
16.01.2018 02:00:00 -0,7 -3,1 14 8 36 19 SE 995,6 18 0,0
16.01.2018 01:00:00 -0,6 -3,0 11 6 36 19 SE 997,1 21 0,0
16.01.2018 00:00:00 -0,6 -3,1 14 8 32 18 ESE 998,6 25 0,0
15.01.2018 23:00:00 -0,7 -3,2 14 8 32 18 SE 1000,2 28 0,0
15.01.2018 22:00:00 -0,9 -3,4 14 8 36 19 SE 1001,0 27 0,0
15.01.2018 21:00:00 -1,1 -3,5 14 8 32 18 SE 1002,7 25 0,0
15.01.2018 20:00:00 -1,4 -3,3 14 8 32 18 SE 1004,6 22 0,0
15.01.2018 19:00:00 -1,8 -3,4 11 6 32 18 SE 1006,1 17 0,0
15.01.2018 18:00:00 -2,0 -3,7 14 8 29 16 SE 1007,7 19 0,0
15.01.2018 17:00:00 -2,2 -4,4 11 6 32 18 SE 1009,3 21 0,0
15.01.2018 16:00:00 -2,2 -5,0 11 6 29 16 SE 1010,7 22 0,0
15.01.2018 15:00:00 -2,0 -5,5 11 6 25 14 SE 1012,1 35 0,0
15.01.2018 14:00:00 -2,2 -5,5 11 6 29 16 SE 1013,2 30 0,0
15.01.2018 13:00:00 -2,3 -5,4 11 6 29 16 SE 1014,5 30 0,0
15.01.2018 12:00:00 -2,4 -5,5 7 4 25 14 SSE 1016,3 26 0,0
15.01.2018 11:00:00 -2,7 -5,7 11 6 25 14 SE 1017,6 26 0,0
15.01.2018 10:00:00 -3,1 -6,4 11 6 22 12 SSE 1018,4 30 0,0
15.01.2018 09:00:00 -3,3 -6,8 11 6 22 12 SSE 1019,3 35 0,0
15.01.2018 08:00:00 -3,4 -7,0 7 4 22 12 SSE 1019,9 45 0,0
15.01.2018 07:00:00 -3,5 -7,3 7 4 22 12 SSE 1021,0 45 0,0
15.01.2018 06:00:00 -3,4 -7,4 7 4 22 12 S 1022,0 45 0,0
15.01.2018 05:00:00 -3,2 -7,2 7 4 18 10 S 1022,9 50 0,0
15.01.2018 04:00:00 -3,0 -7,0 7 4 22 12 SSW 1023,9 45 0,0
15.01.2018 03:00:00 -2,7 -6,7 7 4 22 12 S 1024,8 50 0,0
15.01.2018 02:00:00 -2,7 -6,7 7 4 22 12 SSE 1025,7 45 0,0
15.01.2018 01:00:00 -2,5 -6,9 7 4 22 12 S 1026,4 50 0,0
15.01.2018 00:00:00 -2,2 -6,4 7 4 22 12 SSE 1027,2 50 0,0
14.01.2018 23:00:00 -2,2 -6,2 4 2 22 12 SE 1027,7 50 0,0
14.01.2018 22:00:00 -2,2 -6,4 4 2 18 10 SE 1028,3 45 0,0
14.01.2018 21:00:00 -2,3 -6,7 4 2 22 12 S 1029,0 50 0,0
14.01.2018 20:00:00 -2,2 -6,9 4 2 25 14 S 1029,8 50 0,0
14.01.2018 19:00:00 -1,9 -6,6 7 4 22 12 SSE 1030,4 50 0,0
14.01.2018 18:00:00 -1,7 -6,3 4 2 14 8 SE 1031,3 50 0,0
14.01.2018 17:00:00 -1,7 -6,1 4 2 14 8 SE 1031,7 45 0,0
14.01.2018 16:00:00 -1,5 -6,1 4 2 14 8 SSE 1032,1 50 0,0
14.01.2018 15:00:00 -1,2 -6,0 7 4 14 8 S 1032,5 45 0,0
14.01.2018 14:00:00 -1,0 -6,2 7 4 14 8 S 1032,8 50 0,0
14.01.2018 13:00:00 -0,7 -5,9 7 4 18 10 SSE 1033,3 45 0,0
14.01.2018 12:00:00 -0,6 -5,8 7 4 18 10 S 1033,8 45 0,0
14.01.2018 11:00:00 -0,7 -4,9 4 2 11 6 SE 1034,3 45 0,0
14.01.2018 10:00:00 -1,6 -4,8 0 0 4 2 N 1034,8 50 0,0
14.01.2018 09:00:00 -1,7 -5,4 0 0 11 6 N 1035,0 45 0,0
14.01.2018 08:00:00 -1,4 -5,6 4 2 14 8 SSE 1035,1 45 0,0
14.01.2018 07:00:00 -1,4 -5,8 4 2 14 8 S 1035,5 45 0,0
14.01.2018 06:00:00 -1,2 -5,1 4 2 7 4 SE 1035,4 50 0,0
14.01.2018 05:00:00 -1,3 -5,0 4 2 7 4 ESE 1035,7 50 0,0
14.01.2018 04:00:00 -1,3 -5,2 0 0 7 4 N 1036,2 50 0,0
14.01.2018 03:00:00 -1,3 -5,3 0 0 14 8 N 1036,7 50 0,0
14.01.2018 02:00:00 -1,3 -5,5 4 2 14 8 SSW 1037,2 50 0,0
14.01.2018 01:00:00 -0,9 -4,9 4 2 11 6 SE 1037,3 50 0,0
14.01.2018 00:00:00 -0,9 -4,8 4 2 11 6 S 1037,4 50 0,0
13.01.2018 23:00:00 -1,0 -4,7 0 0 14 8 N 1037,8 50 0,0
13.01.2018 22:00:00 -0,8 -5,0 7 4 14 8 SSE 1038,0 50 0,0
13.01.2018 21:00:00 -0,9 -4,8 4 2 14 8 SE 1038,2 50 0,0
13.01.2018 20:00:00 -1,1 -4,3 0 0 11 6 N 1038,5 50 0,0
13.01.2018 19:00:00 -1,0 -4,3 4 2 14 8 SE 1038,6 50 0,0
13.01.2018 18:00:00 -0,8 -4,5 4 2 14 8 SE 1038,6 45 0,0
13.01.2018 17:00:00 -0,6 -4,1 4 2 14 8 SE 1038,7 50 0,0
13.01.2018 16:00:00 -0,5 -4,0 4 2 14 8 SE 1038,8 50 0,0
13.01.2018 15:00:00 -0,4 -3,8 4 2 14 8 SSE 1038,7 50 0,0
13.01.2018 14:00:00 -0,3 -3,8 4 2 14 8 SE 1039,0 50 0,0
13.01.2018 13:00:00 -0,3 -3,7 4 2 11 6 SE 1039,4 50 0,0
13.01.2018 12:00:00 -0,4 -3,6 4 2 14 8 SSE 1039,9 50 0,0
13.01.2018 11:00:00 -0,5 -3,5 4 2 11 6 ESE 1040,1 50 0,0
13.01.2018 10:00:00 -0,5 -3,5 4 2 14 8 ESE 1039,9 50 0,0
13.01.2018 09:00:00 -0,6 -3,6 4 2 14 8 SE 1039,6 50 0,0
13.01.2018 08:00:00 -0,8 -3,5 4 2 11 6 ESE 1040,0 50 0,0
13.01.2018 07:00:00 -0,9 -3,4 4 2 11 6 SE 1040,0 50 0,0
13.01.2018 06:00:00 -1,0 -3,7 7 4 11 6 SE 1040,2 50 0,0
13.01.2018 05:00:00 -1,2 -3,4 4 2 7 4 SE 1040,1 50 0,0
13.01.2018 04:00:00 -1,3 -3,7 0 0 7 4 N 1040,2 50 0,0
13.01.2018 03:00:00 -1,2 -3,7 4 2 14 8 SSE 1040,3 50 0,0
13.01.2018 02:00:00 -1,0 -3,4 7 4 14 8 SE 1040,2 50 0,0
13.01.2018 01:00:00 -1,0 -3,5 4 2 14 8 SE 1040,2 50 0,0
13.01.2018 00:00:00 -0,7 -2,7 4 2 11 6 ESE 1040,3 50 0,0
12.01.2018 23:00:00 -0,7 -3,1 4 2 14 8 ESE 1040,1 50 0,0
12.01.2018 22:00:00 -0,4 -2,3 4 2 14 8 ESE 1039,9 50 0,0
12.01.2018 21:00:00 -0,1 -2,5 7 4 14 8 SE 1039,8 50 0,0
12.01.2018 20:00:00 -0,1 -1,8 7 4 14 8 ESE 1039,6 50 0,0
12.01.2018 19:00:00 0,1 -1,3 4 2 14 8 ESE 1039,5 50 0,0
12.01.2018 18:00:00 0,1 -0,9 0 0 11 6 N 1039,3 50 0,0
12.01.2018 17:00:00 0,1 -0,8 0 0 14 8 N 1039,0 45 0,0
12.01.2018 16:00:00 0,2 -0,7 4 2 14 8 ESE 1038,7 40 0,0
12.01.2018 15:00:00 0,3 -0,4 4 2 14 8 E 1038,4 30 0,0
12.01.2018 14:00:00 0,3 -0,4 7 4 14 8 ESE 1038,1 30 0,0
12.01.2018 13:00:00 0,4 0,4 4 2 14 8 E 1038,0 13 0,0
12.01.2018 12:00:00 0,5 0,5 4 2 14 8 E 1037,7 24 0,0
12.01.2018 11:00:00 0,4 0,4 4 2 14 8 E 1037,6 35 0,0
12.01.2018 10:00:00 0,3 0,3 4 2 14 8 NE 1037,2 40 0,1
12.01.2018 09:00:00 0,2 0,2 0 0 7 4 N 1036,7 6 0,1
12.01.2018 08:00:00 0,2 0,2 0 0 7 4 N 1036,1 3,6 0,2
12.01.2018 07:00:00 0,3 0,3 0 0 11 6 N 1035,6 3,6 0,2
12.01.2018 06:00:00 0,5 0,5 4 2 11 6 E 1035,1 7 0,0
12.01.2018 05:00:00 0,5 0,5 4 2 14 8 NE 1034,7 8 0,0
12.01.2018 04:00:00 0,5 0,5 4 2 14 8 E 1034,4 9 0,0
12.01.2018 03:00:00 0,6 0,6 4 2 14 8 E 1033,8 5 0,0
12.01.2018 02:00:00 0,6 0,6 4 2 14 8 ENE 1033,4 11 0,0
12.01.2018 01:00:00 0,4 0,3 4 2 7 4 ENE 1033,0 30 0,0
12.01.2018 00:00:00 0,5 -0,1 4 2 18 10 E 1032,9 17 0,0
11.01.2018 23:00:00 0,8 -0,7 4 2 18 10 E 1032,2 50 0,0
11.01.2018 22:00:00 0,8 -0,5 4 2 14 8 E 1031,3 50 0,0
11.01.2018 21:00:00 1,0 -0,5 7 4 18 10 E 1030,7 50 0,0
11.01.2018 20:00:00 1,0 -0,2 4 2 14 8 E 1030,3 50 0,0
11.01.2018 19:00:00 1,0 -0,2 7 4 18 10 E 1029,6 50 0,0
11.01.2018 18:00:00 0,9 0,0 7 4 18 10 ENE 1029,0 50 0,0
11.01.2018 17:00:00 0,7 0,3 4 2 18 10 E 1028,5 45 0,0
11.01.2018 16:00:00 0,7 0,3 4 2 7 4 ENE 1027,8 45 0,0
11.01.2018 15:00:00 1,0 0,3 4 2 14 8 NE 1027,4 45 0,0
11.01.2018 14:00:00 1,1 0,2 7 4 18 10 ENE 1027,1 45 0,0
11.01.2018 13:00:00 1,0 0,1 7 4 22 12 E 1026,9 40 0,0
11.01.2018 12:00:00 0,6 0,0 4 2 22 12 E 1026,4 40 0,0
11.01.2018 11:00:00 0,4 0,0 7 4 22 12 E 1026,3 30 0,0
11.01.2018 10:00:00 0,3 0,0 7 4 18 10 ENE 1025,6 40 0,0
11.01.2018 09:00:00 0,2 0,1 4 2 22 12 ENE 1025,1 45 0,0
11.01.2018 08:00:00 0,2 0,2 11 6 22 12 E 1024,4 45 0,0

tt = Température de l'air
td = dewpoint
ff = Vitesse du vent
fx = gusts
dd = Direction du vent
ppp = reduced air pressure
vv = visibility
rr = Quantités de précipitations

stations d'obs. à proximité